Flag for Norway Weather past 2 weeks in Longyearbyen, Svalbard, Norway

Now
21 °F

Scattered clouds.


Feels Like: 7 °F
Forecast: 10 / 20 °F
Wind: 16 mph from Northeast

Location: Svalbard Lufthavn

Current Time: Apr 28, 2015 at 1:06:45 PM

Latest Report: Apr 28, 2015 at 11:50 AM


Visibility: N/A

Pressure: 30.01 "Hg

Humidity: 58%

Dew point: 9 °F

Location of LongyearbyenLocation

Historic Weather in Longyearbyen — Graph

°F

Longyearbyen temperature yesterday

Maximum temperature yesterday: 23 °F (at 9:50 AM)
Minimum temperature yesterday: 19 °F (at 12:50 AM)
Average temperature yesterday: 21 °F

Past Weeks' High & Low Weather Summary

 TemperatureHumidityPressure
High43 °F (Apr 16, 5:50 PM)93% (Apr 18, 6:20 PM)30.33 "Hg (Apr 18, 6:20 PM)
Low9 °F (Apr 24, 1:50 AM)42% (Apr 24, 7:50 PM)29.33 "Hg (Apr 16, 11:50 PM)
Average25 °F68%29.75 "Hg
* Reported Apr 13 11:50 AM — Apr 28 11:50 AM, Longyearbyen, Weather by CustomWeather, © 2015

Note: Actual official high and low records may vary slightly from our data, if they occured in-between our weather recording intervals... More about our weather records

Advertising

Longyearbyen weather history for previous 24 hours

 ConditionsComfort  
Time TempWeatherWind HumidityBarometerVisibility
11:50 AM
Tue, Apr 28
21 °FScattered clouds.16 mph58%30.01 "HgN/A
10:50 AM21 °FPartly sunny.15 mph58%30.01 "HgN/A
9:50 AM21 °FPartly sunny.13 mph54%30.01 "HgN/A
8:50 AM21 °FPartly sunny.12 mph58%30.01 "HgN/A
7:50 AM19 °FPartly sunny.3 mph63%30.01 "HgN/A
7:20 AM19 °FPartly sunny.10 mph58%30.01 "HgN/A
6:50 AM19 °FPartly sunny.7 mph58%30.04 "HgN/A
5:50 AM19 °FPartly sunny.6 mph58%30.04 "HgN/A
4:50 AM19 °FBroken clouds.2 mph58%30.04 "HgN/A
3:50 AM19 °FScattered clouds.8 mph63%30.07 "HgN/A
2:50 AM19 °FScattered clouds.9 mph58%30.07 "HgN/A
1:50 AM21 °FScattered clouds.7 mph54%30.07 "HgN/A
12:50 AM19 °FScattered clouds.8 mph63%30.07 "HgN/A
11:50 PM
Mon, Apr 27
21 °FScattered clouds.8 mph49%30.07 "HgN/A
10:50 PM21 °FScattered clouds.12 mph58%30.07 "HgN/A
9:50 PM21 °FScattered clouds.8 mph54%30.09 "HgN/A
8:50 PM21 °FScattered clouds.8 mph54%30.09 "HgN/A
7:50 PM21 °FPartly sunny.9 mph54%30.09 "HgN/A
6:50 PM21 °FPartly sunny.16 mph58%30.09 "HgN/A
5:50 PM21 °FPartly sunny.12 mph58%30.09 "HgN/A
4:50 PM21 °FPartly sunny.13 mph63%30.09 "HgN/A
3:50 PM21 °FBroken clouds.14 mph63%30.09 "HgN/A
2:50 PM21 °FBroken clouds.6 mph58%30.09 "HgN/A
1:50 PM21 °FBroken clouds.8 mph63%30.09 "HgN/A
Weather by CustomWeather, © 2015

See weather overviewHow to use our weather pages